User: anonymous   Login
Location: Unspecified
(0.0000°N, 0.0000°E)
Time: 20:11:35
(UTC+00:00)
Language:

PROITERES - Orbit

View from above orbital plane
View from above orbital plane
View from above satellite
View from above satellite

Ground track
Ground track

The orbit data is extracted from the following two-line orbital elements,

1 38756U 12047B   18351.44903057  .00000077  00000-0  19034-4 0  9998
2 38756  98.3428 136.6350 0012318 166.8968 193.2575 14.76527807337741
Epoch (UTC): 17 December 2018 10:46:36
Eccentricity: 0.0012318
inclination: 98.3428°
perigee height: 631 km
apogee height: 649 km
right ascension of ascending node: 136.6350°
argument of perigee: 166.8968°
revolutions per day: 14.76527807
mean anomaly at epoch: 193.2575°
orbit number at epoch: 33774

The dashed part of the orbit path shows where the satellite is in the earth's shadow,  

DLR